| time (UTC) | temp F | wind direction | speed knots | gust knots | rain 1hr in | rain 24hr in | rain mn in | humidity % | barometer mb |
| 20260506224515 | 68 | 320 | 3.5 | 9.6 | 0.00 | 0.00 | 0.00 | 69 | 1012.1 |
| 20260506224015 | 68 | 317 | 2.6 | 10.4 | 0.00 | 0.00 | 0.00 | 69 | 1012.1 |
| 20260506223515 | 68 | 315 | 3.5 | 10.4 | 0.00 | 0.00 | 0.00 | 69 | 1012.1 |
| 20260506223015 | 69 | 309 | 3.5 | 10.4 | 0.00 | 0.00 | 0.00 | 68 | 1012.0 |
| 20260506222515 | 69 | 0 | 3.5 | 10.4 | 0.00 | 0.00 | 0.00 | 68 | 1012.0 |
| 20260506222014 | 69 | 328 | 3.5 | 10.4 | 0.00 | 0.00 | 0.00 | 67 | 1011.7 |
| 20260506221515 | 70 | 5 | 2.6 | 8.7 | 0.00 | 0.00 | 0.00 | 67 | 1011.8 |
| 20260506221016 | 70 | 351 | 1.7 | 8.7 | 0.00 | 0.00 | 0.00 | 67 | 1012.0 |
| 20260506220510 | 71 | 339 | 1.7 | 7.0 | 0.00 | 0.00 | 0.00 | 66 | 1012.0 |
| 20260506220003 | 71 | 290 | 2.6 | 8.7 | 0.00 | 0.00 | 0.00 | 65 | 1012.0 |
| 20260506215728 | 72 | 36 | 2.6 | 8.7 | 0.00 | 0.00 | 0.00 | 66 | 1012.0 |
| 20260506214951 | 72 | 327 | 2.6 | 9.6 | 0.00 | 0.00 | 0.00 | 64 | 1011.9 |
| 20260506214445 | 73 | 11 | 1.7 | 9.6 | 0.00 | 0.00 | 0.00 | 65 | 1011.7 |
| 20260506213939 | 73 | 288 | 1.7 | 8.7 | 0.00 | 0.00 | 0.00 | 66 | 1011.6 |
| 20260506213432 | 73 | 20 | 2.6 | 10.4 | 0.00 | 0.00 | 0.00 | 66 | 1011.5 |
| 20260506212927 | 73 | 298 | 2.6 | 10.4 | 0.00 | 0.00 | 0.00 | 66 | 1011.4 |
| 20260506212421 | 73 | 180 | 2.6 | 7.8 | 0.00 | 0.00 | 0.00 | 66 | 1011.5 |
| 20260506211915 | 73 | 11 | 3.5 | 11.3 | 0.00 | 0.00 | 0.00 | 65 | 1011.5 |
| 20260506211409 | 74 | 344 | 3.5 | 11.3 | 0.00 | 0.00 | 0.00 | 64 | 1011.5 |
| 20260506210903 | 74 | 281 | 3.5 | 11.3 | 0.00 | 0.00 | 0.00 | 64 | 1011.5 |
| 20260506210357 | 74 | 332 | 3.5 | 11.3 | 0.00 | 0.00 | 0.00 | 64 | 1011.4 |
| 20260506205851 | 75 | 200 | 2.6 | 8.7 | 0.00 | 0.00 | 0.00 | 64 | 1011.6 |
| 20260506205615 | 76 | 294 | 3.5 | 9.6 | 0.00 | 0.00 | 0.00 | 64 | 1011.6 |
| 20260506204837 | 76 | 0 | 2.6 | 9.6 | 0.00 | 0.00 | 0.00 | 65 | 1011.6 |
| 20260506204331 | 76 | 285 | 2.6 | 7.0 | 0.00 | 0.00 | 0.00 | 65 | 1011.7 |
| 20260506203825 | 76 | 336 | 1.7 | 7.8 | 0.00 | 0.00 | 0.00 | 65 | 1011.7 |
| 20260506203319 | 77 | 317 | 2.6 | 10.4 | 0.00 | 0.00 | 0.00 | 65 | 1011.8 |
| 20260506202813 | 77 | 298 | 2.6 | 10.4 | 0.00 | 0.00 | 0.00 | 65 | 1011.7 |
| 20260506202307 | 77 | 315 | 2.6 | 8.7 | 0.00 | 0.00 | 0.00 | 65 | 1011.7 |
| 20260506201802 | 78 | 355 | 2.6 | 9.6 | 0.00 | 0.00 | 0.00 | 64 | 1011.6 |
| 20260506201254 | 78 | 15 | 2.6 | 8.7 | 0.00 | 0.00 | 0.00 | 65 | 1011.6 |
| 20260506200749 | 78 | 270 | 1.7 | 8.7 | 0.00 | 0.00 | 0.00 | 65 | 1011.5 |
| 20260506200243 | 78 | 337 | 1.7 | 10.4 | 0.00 | 0.00 | 0.00 | 67 | 1011.4 |
| 20260506195737 | 78 | 337 | 1.7 | 10.4 | 0.00 | 0.00 | 0.00 | 66 | 1011.3 |
| 20260506195230 | 79 | 229 | 1.7 | 8.7 | 0.00 | 0.00 | 0.00 | 67 | 1011.3 |
| 20260506194725 | 79 | 30 | 1.7 | 7.8 | 0.00 | 0.00 | 0.00 | 67 | 1011.3 |
| 20260506194218 | 79 | 336 | 1.7 | 7.8 | 0.00 | 0.00 | 0.00 | 67 | 1011.2 |
| 20260506193713 | 80 | 292 | 2.6 | 10.4 | 0.00 | 0.00 | 0.00 | 66 | 1011.2 |
| 20260506193207 | 80 | 191 | 3.5 | 10.4 | 0.00 | 0.00 | 0.00 | 66 | 1011.0 |
| 20260506192700 | 81 | 355 | 2.6 | 9.6 | 0.00 | 0.00 | 0.00 | 66 | 1010.9 |
| 20260506192155 | 81 | 313 | 1.7 | 9.6 | 0.00 | 0.00 | 0.00 | 66 | 1010.9 |
| 20260506191650 | 81 | 355 | 1.7 | 6.1 | 0.00 | 0.00 | 0.00 | 67 | 1011.0 |
| 20260506191143 | 82 | 355 | 2.6 | 7.0 | 0.00 | 0.00 | 0.00 | 67 | 1011.1 |
| 20260506190637 | 82 | 0 | 2.6 | 7.0 | 0.00 | 0.00 | 0.00 | 66 | 1011.2 |
| 20260506190403 | 82 | 5 | 1.7 | 7.0 | 0.00 | 0.00 | 0.00 | 66 | 1011.4 |
| 20260506185626 | 82 | 355 | 2.6 | 7.0 | 0.00 | 0.00 | 0.00 | 67 | 1011.3 |
| 20260506185119 | 82 | 355 | 2.6 | 7.0 | 0.00 | 0.00 | 0.00 | 68 | 1011.3 |
| 20260506184613 | 81 | 24 | 1.7 | 4.3 | 0.00 | 0.00 | 0.00 | 69 | 1011.2 |
| 20260506184107 | 81 | 34 | 1.7 | 4.3 | 0.00 | 0.00 | 0.00 | 68 | 1011.1 |
| 20260506183601 | 80 | 28 | 1.7 | 5.2 | 0.00 | 0.00 | 0.00 | 69 | 1011.1 |
| 20260506183054 | 80 | 355 | 2.6 | 5.2 | 0.00 | 0.00 | 0.00 | 69 | 1011.2 |
| 20260506182549 | 80 | 17 | 1.7 | 6.1 | 0.00 | 0.00 | 0.00 | 70 | 1011.3 |
| 20260506182049 | 79 | 86 | 1.7 | 6.1 | 0.00 | 0.00 | 0.00 | 70 | 1011.5 |
| 20260506181549 | 78 | 355 | 1.7 | 5.2 | 0.00 | 0.00 | 0.00 | 73 | 1011.4 |
| 20260506181048 | 78 | 348 | 2.6 | 7.8 | 0.00 | 0.00 | 0.00 | 74 | 1011.4 |
| 20260506180549 | 77 | 38 | 1.7 | 7.8 | 0.00 | 0.00 | 0.00 | 74 | 1011.3 |
| 20260506180048 | 76 | 125 | 1.7 | 6.1 | 0.00 | 0.00 | 0.00 | 74 | 1011.2 |
| 20260506175555 | 75 | 146 | 2.6 | 7.0 | 0.00 | 0.00 | 0.00 | 76 | 1011.3 |
| 20260506175549 | 76 | 18 | 2.6 | 7.0 | 0.00 | 0.00 | 0.00 | 76 | 1011.2 |
| 20260506174550 | 74 | 88 | 2.6 | 7.0 | 0.00 | 0.00 | 0.00 | 76 | 1011.4 |
| 20260506174048 | 74 | 71 | 2.6 | 7.0 | 0.00 | 0.00 | 0.00 | 78 | 1011.3 |
| 20260506173548 | 73 | 100 | 2.6 | 7.8 | 0.00 | 0.00 | 0.00 | 79 | 1011.4 |
| 20260506173048 | 72 | 129 | 2.6 | 7.8 | 0.00 | 0.00 | 0.00 | 79 | 1011.4 |
| 20260506172548 | 72 | 96 | 1.7 | 6.1 | 0.00 | 0.00 | 0.00 | 80 | 1011.5 |
| 20260506172049 | 72 | 39 | 1.7 | 7.0 | 0.00 | 0.00 | 0.00 | 82 | 1011.6 |
| 20260506171546 | 71 | 38 | 0.9 | 7.0 | 0.00 | 0.00 | 0.00 | 82 | 1011.6 |
| 20260506171046 | 70 | 111 | 0.9 | 3.5 | 0.00 | 0.00 | 0.00 | 83 | 1011.5 |
| 20260506170545 | 70 | 34 | 1.7 | 7.8 | 0.00 | 0.00 | 0.00 | 84 | 1011.6 |
| 20260506170047 | 70 | 17 | 1.7 | 7.8 | 0.00 | 0.00 | 0.00 | 83 | 1011.7 |
| 20260506165541 | 69 | 17 | 0.9 | 7.0 | 0.00 | 0.00 | 0.00 | 83 | 1011.7 |
| 20260506165036 | 68 | 350 | 2.6 | 7.8 | 0.00 | 0.00 | 0.00 | 82 | 1011.8 |
| 20260506164530 | 68 | 15 | 2.6 | 7.8 | 0.00 | 0.00 | 0.00 | 82 | 1012.1 |
| 20260506164027 | 69 | 30 | 1.7 | 7.8 | 0.00 | 0.00 | 0.00 | 81 | 1012.2 |
| 20260506164023 | 69 | 26 | 1.7 | 7.0 | 0.00 | 0.00 | 0.00 | 81 | 1012.0 |
| 20260506163019 | 69 | 340 | 1.7 | 7.8 | 0.00 | 0.00 | 0.00 | 80 | 1012.5 |
| 20260506162521 | 69 | 12 | 2.6 | 10.4 | 0.00 | 0.00 | 0.00 | 80 | 1012.8 |
| 20260506162018 | 70 | 5 | 2.6 | 10.4 | 0.00 | 0.00 | 0.00 | 79 | 1012.9 |
| 20260506161751 | 70 | 344 | 1.7 | 8.7 | 0.00 | 0.00 | 0.00 | 79 | 1013.2 |
| 20260506161018 | 71 | 311 | 4.3 | 17.4 | 0.00 | 0.00 | 0.00 | 79 | 1013.1 |
| 20260506160749 | 71 | 344 | 6.1 | 17.4 | 0.00 | 0.00 | 0.00 | 79 | 1012.6 |
| 20260506160018 | 73 | 334 | 5.2 | 13.9 | 0.00 | 0.00 | 0.00 | 79 | 1012.1 |
| 20260506155518 | 74 | 355 | 4.3 | 13.9 | 0.00 | 0.00 | 0.00 | 80 | 1012.1 |
| 20260506155017 | 76 | 0 | 3.5 | 12.2 | 0.00 | 0.00 | 0.00 | 82 | 1012.0 |
| 20260506154518 | 77 | 355 | 1.7 | 12.2 | 0.00 | 0.00 | 0.00 | 83 | 1011.7 |
| 20260506154018 | 77 | 56 | 0.9 | 3.5 | 0.00 | 0.00 | 0.00 | 85 | 1011.5 |
| 20260506153750 | 77 | 57 | 0.9 | 3.5 | 0.00 | 0.00 | 0.00 | 85 | 1011.4 |
| 20260506153019 | 77 | 96 | 0.9 | 2.6 | 0.00 | 0.00 | 0.00 | 85 | 1011.5 |
| 20260506152750 | 77 | 149 | 0.0 | 0.9 | 0.00 | 0.00 | 0.00 | 85 | 1011.2 |
| 20260506152015 | 77 | 149 | 0.0 | 0.9 | 0.00 | 0.00 | 0.00 | 85 | 1011.0 |
| 20260506151519 | 77 | 149 | 0.0 | 1.7 | 0.00 | 0.00 | 0.00 | 85 | 1011.0 |
| 20260506151514 | 77 | 149 | 0.0 | 0.9 | 0.00 | 0.00 | 0.00 | 85 | 1011.1 |
| 20260506150514 | 77 | 149 | 0.9 | 1.7 | 0.00 | 0.00 | 0.00 | 85 | 1010.9 |
| 20260506150015 | 76 | 149 | 0.9 | 2.6 | 0.00 | 0.00 | 0.00 | 85 | 1010.9 |
| 20260506145513 | 76 | 149 | 1.7 | 5.2 | 0.00 | 0.00 | 0.00 | 85 | 1010.6 |
| 20260506145015 | 76 | 155 | 1.7 | 5.2 | 0.00 | 0.00 | 0.00 | 86 | 1010.4 |
| 20260506144746 | 76 | 143 | 1.7 | 4.3 | 0.00 | 0.00 | 0.00 | 86 | 1010.3 |
| 20260506144015 | 76 | 152 | 2.6 | 4.3 | 0.00 | 0.00 | 0.00 | 86 | 1010.3 |
| 20260506143514 | 76 | 155 | 1.7 | 5.2 | 0.00 | 0.00 | 0.00 | 86 | 1010.4 |
| 20260506143015 | 76 | 173 | 1.7 | 5.2 | 0.00 | 0.00 | 0.00 | 86 | 1010.1 |
| 20260506142515 | 76 | 150 | 2.6 | 5.2 | 0.00 | 0.00 | 0.00 | 87 | 1009.9 |
| 20260506142015 | 76 | 150 | 1.7 | 4.3 | 0.00 | 0.00 | 0.00 | 87 | 1009.7 |
| 20260506141514 | 76 | 140 | 0.9 | 3.5 | 0.00 | 0.00 | 0.00 | 87 | 1009.9 |
| 20260506141015 | 76 | 140 | 0.0 | 2.6 | 0.00 | 0.00 | 0.00 | 87 | 1010.2 |
| 20260506140513 | 76 | 138 | 0.0 | 1.7 | 0.00 | 0.00 | 0.00 | 87 | 1010.4 |
| 20260506140016 | 76 | 138 | 0.0 | 4.3 | 0.00 | 0.00 | 0.00 | 87 | 1010.5 |
| 20260506135512 | 76 | 138 | 0.0 | 4.3 | 0.00 | 0.00 | 0.00 | 87 | 1010.3 |
| 20260506135006 | 75 | 149 | 0.9 | 4.3 | 0.00 | 0.00 | 0.00 | 87 | 1010.0 |
| 20260506134500 | 75 | 150 | 1.7 | 4.3 | 0.00 | 0.00 | 0.00 | 87 | 1009.6 |
| 20260506134228 | 75 | 147 | 2.6 | 5.2 | 0.00 | 0.00 | 0.00 | 87 | 1009.7 |
| 20260506133448 | 75 | 150 | 2.6 | 5.2 | 0.00 | 0.00 | 0.00 | 87 | 1009.7 |
| 20260506133217 | 75 | 143 | 1.7 | 4.3 | 0.00 | 0.00 | 0.00 | 88 | 1009.6 |
| 20260506132940 | 75 | 148 | 1.7 | 4.3 | 0.00 | 0.00 | 0.00 | 88 | 1009.6 |
| 20260506131930 | 75 | 145 | 1.7 | 4.3 | 0.00 | 0.00 | 0.00 | 88 | 1009.6 |
| 20260506131427 | 75 | 144 | 1.7 | 4.3 | 0.00 | 0.00 | 0.00 | 88 | 1009.6 |
| 20260506131422 | 75 | 140 | 1.7 | 6.1 | 0.00 | 0.00 | 0.00 | 88 | 1009.5 |
| 20260506130411 | 75 | 126 | 1.7 | 6.1 | 0.00 | 0.00 | 0.00 | 88 | 1009.6 |
| 20260506125903 | 75 | 147 | 1.7 | 5.2 | 0.00 | 0.00 | 0.00 | 88 | 1009.5 |
| 20260506125358 | 75 | 146 | 2.6 | 5.2 | 0.00 | 0.00 | 0.00 | 88 | 1009.4 |
| 20260506124852 | 75 | 140 | 1.7 | 4.3 | 0.00 | 0.00 | 0.00 | 87 | 1009.4 |
| 20260506124347 | 75 | 141 | 1.7 | 4.3 | 0.00 | 0.00 | 0.00 | 87 | 1009.3 |
| 20260506124341 | 75 | 153 | 0.9 | 4.3 | 0.00 | 0.00 | 0.00 | 87 | 1009.3 |
| 20260506123334 | 75 | 161 | 0.9 | 3.5 | 0.00 | 0.00 | 0.00 | 87 | 1009.4 |
| 20260506122828 | 75 | 162 | 0.0 | 3.5 | 0.00 | 0.00 | 0.00 | 87 | 1009.3 |
| 20260506122322 | 75 | 163 | 0.0 | 0.0 | 0.00 | 0.00 | 0.00 | 87 | 1009.4 |
| 20260506121816 | 75 | 163 | 0.0 | 0.0 | 0.00 | 0.00 | 0.00 | 87 | 1009.4 |
| 20260506121310 | 75 | 163 | 0.0 | 0.0 | 0.00 | 0.00 | 0.00 | 87 | 1009.4 |
| 20260506121037 | 75 | 163 | 0.0 | 0.0 | 0.00 | 0.00 | 0.00 | 87 | 1009.5 |
| 20260506120258 | 75 | 163 | 0.0 | 0.0 | 0.00 | 0.00 | 0.00 | 87 | 1009.3 |
| 20260506115752 | 75 | 163 | 0.0 | 0.0 | 0.00 | 0.00 | 0.00 | 87 | 1009.2 |
| 20260506115246 | 75 | 163 | 0.0 | 0.0 | 0.00 | 0.00 | 0.00 | 87 | 1009.2 |
| 20260506114740 | 75 | 163 | 0.0 | 0.0 | 0.00 | 0.00 | 0.00 | 87 | 1009.2 |
| 20260506114234 | 75 | 163 | 0.0 | 0.0 | 0.00 | 0.00 | 0.00 | 87 | 1009.2 |
| 20260506113727 | 75 | 163 | 0.0 | 1.7 | 0.00 | 0.00 | 0.00 | 87 | 1009.2 |
| 20260506113222 | 75 | 163 | 0.0 | 1.7 | 0.00 | 0.00 | 0.00 | 87 | 1009.3 |
| 20260506112717 | 75 | 162 | 0.0 | 1.7 | 0.00 | 0.00 | 0.00 | 87 | 1009.2 |
| 20260506112211 | 75 | 162 | 0.0 | 1.7 | 0.00 | 0.00 | 0.00 | 87 | 1009.2 |
| 20260506111704 | 75 | 162 | 0.9 | 1.7 | 0.00 | 0.00 | 0.00 | 87 | 1009.3 |
| 20260506111158 | 75 | 162 | 0.0 | 1.7 | 0.00 | 0.00 | 0.00 | 87 | 1009.3 |
| 20260506110923 | 75 | 162 | 0.0 | 0.9 | 0.00 | 0.00 | 0.00 | 87 | 1009.2 |
| 20260506110146 | 75 | 163 | 0.0 | 0.0 | 0.00 | 0.00 | 0.00 | 87 | 1009.2 |
| 20260506105640 | 75 | 163 | 0.0 | 0.0 | 0.00 | 0.00 | 0.00 | 87 | 1009.2 |
| 20260506105135 | 75 | 163 | 0.0 | 0.0 | 0.00 | 0.00 | 0.00 | 87 | 1009.1 |
| 20260506105129 | 75 | 163 | 0.0 | 0.0 | 0.00 | 0.00 | 0.00 | 87 | 1009.1 |
| 20260506104354 | 75 | 163 | 0.0 | 0.0 | 0.00 | 0.00 | 0.00 | 87 | 1009.0 |
| 20260506103616 | 75 | 163 | 0.0 | 0.0 | 0.00 | 0.00 | 0.00 | 87 | 1009.0 |
| 20260506103110 | 75 | 163 | 0.9 | 3.5 | 0.00 | 0.00 | 0.00 | 87 | 1008.9 |
| 20260506102604 | 75 | 163 | 0.9 | 4.3 | 0.00 | 0.00 | 0.00 | 87 | 1008.7 |
| 20260506102058 | 75 | 162 | 0.9 | 4.3 | 0.00 | 0.00 | 0.00 | 87 | 1008.8 |
| 20260506101552 | 75 | 159 | 0.9 | 3.5 | 0.00 | 0.00 | 0.00 | 87 | 1008.6 |
| 20260506101046 | 75 | 169 | 0.9 | 5.2 | 0.00 | 0.00 | 0.00 | 87 | 1008.5 |
| 20260506100540 | 75 | 167 | 0.9 | 5.2 | 0.00 | 0.00 | 0.00 | 87 | 1008.6 |
| 20260506100034 | 75 | 158 | 0.9 | 4.3 | 0.00 | 0.00 | 0.00 | 87 | 1008.5 |
| 20260506095528 | 75 | 167 | 0.9 | 4.3 | 0.00 | 0.00 | 0.00 | 86 | 1008.4 |
| 20260506095022 | 75 | 163 | 0.9 | 4.3 | 0.00 | 0.00 | 0.00 | 86 | 1008.4 |
| 20260506094520 | 75 | 157 | 0.9 | 4.3 | 0.00 | 0.00 | 0.00 | 86 | 1008.2 |
| 20260506094514 | 75 | 136 | 0.9 | 4.3 | 0.00 | 0.00 | 0.00 | 86 | 1008.2 |
| 20260506093504 | 75 | 142 | 1.7 | 6.1 | 0.00 | 0.00 | 0.00 | 86 | 1008.2 |
| 20260506092957 | 75 | 153 | 1.7 | 6.1 | 0.00 | 0.00 | 0.00 | 86 | 1008.2 |
| 20260506092453 | 75 | 180 | 1.7 | 6.1 | 0.00 | 0.00 | 0.00 | 86 | 1008.1 |
| 20260506092448 | 75 | 177 | 1.7 | 5.2 | 0.00 | 0.00 | 0.00 | 86 | 1008.1 |
| 20260506092105 | 76 | 164 | 1.7 | 6.1 | 0.00 | 0.00 | 0.00 | 86 | 1008.0 |
| 20260506091833 | 75 | 180 | 1.7 | 5.2 | 0.00 | 0.00 | 0.00 | 86 | 1008.1 |
| 20260506090428 | 76 | 164 | 1.7 | 7.0 | 0.00 | 0.00 | 0.00 | 86 | 1007.8 |
| 20260506085922 | 76 | 180 | 1.7 | 7.0 | 0.00 | 0.00 | 0.00 | 86 | 1008.0 |
| 20260506085648 | 76 | 151 | 1.7 | 6.1 | 0.00 | 0.00 | 0.00 | 86 | 1008.0 |
| 20260506084910 | 76 | 126 | 2.6 | 7.8 | 0.00 | 0.00 | 0.00 | 86 | 1008.0 |
| 20260506084404 | 76 | 139 | 2.6 | 7.8 | 0.00 | 0.00 | 0.00 | 86 | 1008.0 |
| 20260506083858 | 76 | 187 | 2.6 | 7.8 | 0.00 | 0.00 | 0.00 | 85 | 1008.0 |
| 20260506083351 | 76 | 114 | 2.6 | 7.8 | 0.00 | 0.00 | 0.00 | 85 | 1007.8 |
| 20260506082846 | 76 | 146 | 2.6 | 7.8 | 0.00 | 0.00 | 0.00 | 85 | 1007.7 |
| 20260506082339 | 76 | 155 | 3.5 | 12.2 | 0.00 | 0.00 | 0.00 | 85 | 1007.8 |
| 20260506082105 | 76 | 136 | 3.5 | 12.2 | 0.00 | 0.00 | 0.00 | 85 | 1008.0 |
| 20260506081602 | 76 | 194 | 2.6 | 7.8 | 0.00 | 0.00 | 0.00 | 85 | 1008.1 |
| 20260506080831 | 76 | 159 | 2.6 | 7.0 | 0.00 | 0.00 | 0.00 | 85 | 1008.0 |
| 20260506080336 | 76 | 214 | 2.6 | 7.8 | 0.00 | 0.00 | 0.00 | 85 | 1008.1 |
| 20260506080331 | 76 | 178 | 2.6 | 7.8 | 0.00 | 0.00 | 0.00 | 85 | 1007.8 |
| 20260506073326 | 76 | 163 | 3.5 | 8.7 | 0.00 | 0.00 | 0.00 | 85 | 1008.2 |
| 20260506072827 | 76 | 152 | 3.5 | 9.6 | 0.00 | 0.00 | 0.00 | 85 | 1008.3 |
| 20260506072327 | 76 | 190 | 3.5 | 9.6 | 0.00 | 0.00 | 0.00 | 85 | 1008.4 |
| 20260506071828 | 76 | 168 | 3.5 | 9.6 | 0.00 | 0.00 | 0.00 | 85 | 1008.4 |
| 20260506071326 | 76 | 128 | 3.5 | 11.3 | 0.00 | 0.00 | 0.00 | 85 | 1008.5 |
| 20260506070828 | 76 | 175 | 3.5 | 13.9 | 0.00 | 0.00 | 0.00 | 85 | 1008.4 |
| 20260506070554 | 76 | 146 | 3.5 | 13.9 | 0.00 | 0.00 | 0.00 | 85 | 1008.5 |
| 20260506062324 | 76 | 135 | 2.6 | 8.7 | 0.00 | 0.00 | 0.00 | 84 | 1008.5 |
| 20260506061824 | 76 | 144 | 3.5 | 9.6 | 0.00 | 0.00 | 0.00 | 84 | 1008.7 |
| 20260506061324 | 76 | 144 | 3.5 | 9.6 | 0.00 | 0.00 | 0.00 | 84 | 1008.6 |
| 20260506060823 | 76 | 155 | 3.5 | 7.8 | 0.00 | 0.00 | 0.00 | 84 | 1008.6 |
| 20260506060324 | 76 | 140 | 3.5 | 7.8 | 0.00 | 0.00 | 0.00 | 84 | 1008.6 |
| 20260506051247 | 76 | 124 | 3.5 | 9.6 | 0.00 | 0.00 | 0.00 | 84 | 1008.7 |
| 20260506050741 | 76 | 152 | 3.5 | 9.6 | 0.00 | 0.00 | 0.00 | 84 | 1008.7 |
| 20260506050235 | 76 | 159 | 2.6 | 7.0 | 0.00 | 0.00 | 0.00 | 84 | 1008.7 |
| 20260506044718 | 77 | 184 | 3.5 | 9.6 | 0.00 | 0.00 | 0.00 | 84 | 1008.7 |
| 20260506044212 | 77 | 182 | 3.5 | 8.7 | 0.00 | 0.00 | 0.00 | 84 | 1008.7 |
| 20260506043937 | 77 | 151 | 3.5 | 8.7 | 0.00 | 0.00 | 0.00 | 83 | 1008.6 |
| 20260506043200 | 77 | 195 | 3.5 | 10.4 | 0.00 | 0.00 | 0.00 | 83 | 1008.6 |
| 20260506042925 | 77 | 150 | 3.5 | 10.4 | 0.00 | 0.00 | 0.00 | 83 | 1008.4 |
| 20260506042148 | 77 | 146 | 3.5 | 8.7 | 0.00 | 0.00 | 0.00 | 83 | 1008.5 |
| 20260506041914 | 77 | 148 | 2.6 | 6.1 | 0.00 | 0.00 | 0.00 | 83 | 1008.4 |
| 20260506041142 | 77 | 126 | 2.6 | 7.8 | 0.00 | 0.00 | 0.00 | 83 | 1008.4 |
| 20260506040639 | 77 | 158 | 2.6 | 7.8 | 0.00 | 0.00 | 0.00 | 83 | 1008.4 |
| 20260506040412 | 77 | 146 | 2.6 | 7.0 | 0.00 | 0.00 | 0.00 | 83 | 1008.3 |
| 20260506035639 | 77 | 161 | 3.5 | 11.3 | 0.00 | 0.00 | 0.00 | 82 | 1008.2 |
| 20260506035408 | 77 | 132 | 3.5 | 11.3 | 0.00 | 0.00 | 0.00 | 82 | 1008.1 |
| 20260506034636 | 77 | 159 | 3.5 | 8.7 | 0.00 | 0.00 | 0.00 | 82 | 1008.1 |
| 20260506034139 | 77 | 174 | 3.5 | 7.8 | 0.00 | 0.00 | 0.00 | 82 | 1008.1 |
| 20260506033637 | 78 | 134 | 3.5 | 9.6 | 0.00 | 0.00 | 0.00 | 82 | 1008.0 |
| 20260506033137 | 78 | 142 | 3.5 | 9.6 | 0.00 | 0.00 | 0.00 | 82 | 1007.8 |
| 20260506032636 | 78 | 144 | 3.5 | 7.8 | 0.00 | 0.00 | 0.00 | 82 | 1007.7 |
| 20260506032137 | 78 | 153 | 3.5 | 7.0 | 0.00 | 0.00 | 0.00 | 82 | 1007.7 |
| 20260506031637 | 78 | 138 | 3.5 | 7.0 | 0.00 | 0.00 | 0.00 | 81 | 1007.6 |
| 20260506031138 | 78 | 152 | 3.5 | 7.0 | 0.00 | 0.00 | 0.00 | 81 | 1007.5 |
| 20260506030637 | 78 | 154 | 3.5 | 8.7 | 0.00 | 0.00 | 0.00 | 81 | 1007.4 |
| 20260506030134 | 78 | 171 | 4.3 | 9.6 | 0.00 | 0.00 | 0.00 | 81 | 1007.3 |
| 20260506025634 | 78 | 107 | 3.5 | 9.6 | 0.00 | 0.00 | 0.00 | 81 | 1007.4 |
| 20260506025134 | 78 | 145 | 3.5 | 9.6 | 0.00 | 0.00 | 0.00 | 80 | 1007.2 |
| 20260506024633 | 78 | 171 | 3.5 | 9.6 | 0.00 | 0.00 | 0.00 | 80 | 1007.1 |
| 20260506024133 | 78 | 116 | 3.5 | 7.8 | 0.00 | 0.00 | 0.00 | 80 | 1007.1 |
| 20260506023633 | 78 | 132 | 2.6 | 7.8 | 0.00 | 0.00 | 0.00 | 79 | 1006.9 |
| 20260506023134 | 78 | 136 | 2.6 | 7.0 | 0.00 | 0.00 | 0.00 | 79 | 1006.9 |
| 20260506022906 | 78 | 135 | 3.5 | 7.0 | 0.00 | 0.00 | 0.00 | 79 | 1006.9 |
| 20260506022134 | 78 | 144 | 2.6 | 7.0 | 0.00 | 0.00 | 0.00 | 79 | 1006.7 |
| 20260506021630 | 78 | 139 | 2.6 | 6.1 | 0.00 | 0.00 | 0.00 | 79 | 1006.7 |
| 20260506021129 | 79 | 144 | 1.7 | 5.2 | 0.00 | 0.00 | 0.00 | 78 | 1006.6 |
| 20260506020630 | 79 | 149 | 1.7 | 6.1 | 0.00 | 0.00 | 0.00 | 78 | 1006.5 |
| 20260506020128 | 79 | 137 | 2.6 | 6.1 | 0.00 | 0.00 | 0.00 | 78 | 1006.5 |
| 20260506015630 | 79 | 152 | 2.6 | 5.2 | 0.00 | 0.00 | 0.00 | 77 | 1006.3 |
| 20260506015129 | 79 | 141 | 2.6 | 5.2 | 0.00 | 0.00 | 0.00 | 77 | 1006.2 |
| 20260506014629 | 79 | 142 | 1.7 | 5.2 | 0.00 | 0.00 | 0.00 | 77 | 1006.2 |
| 20260506014129 | 80 | 140 | 1.7 | 4.3 | 0.00 | 0.00 | 0.00 | 76 | 1006.2 |
| 20260506013625 | 80 | 148 | 1.7 | 4.3 | 0.00 | 0.00 | 0.00 | 76 | 1006.2 |
| 20260506013125 | 80 | 146 | 1.7 | 3.5 | 0.00 | 0.00 | 0.00 | 75 | 1006.3 |
| 20260506012620 | 81 | 146 | 1.7 | 2.6 | 0.00 | 0.00 | 0.00 | 75 | 1006.2 |
| 20260506012113 | 81 | 147 | 1.7 | 2.6 | 0.00 | 0.00 | 0.00 | 74 | 1006.2 |
| 20260506011608 | 81 | 147 | 1.7 | 3.5 | 0.00 | 0.00 | 0.00 | 74 | 1006.3 |
| 20260506011101 | 81 | 146 | 1.7 | 5.2 | 0.00 | 0.00 | 0.00 | 74 | 1006.3 |
| 20260506010555 | 81 | 146 | 1.7 | 5.2 | 0.00 | 0.00 | 0.00 | 74 | 1006.3 |
| 20260506010050 | 82 | 148 | 1.7 | 4.3 | 0.00 | 0.00 | 0.00 | 73 | 1006.3 |
| 20260506005543 | 82 | 165 | 1.7 | 4.3 | 0.00 | 0.00 | 0.00 | 73 | 1006.2 |
| 20260506005037 | 82 | 167 | 0.9 | 4.3 | 0.00 | 0.00 | 0.00 | 73 | 1006.3 |
| 20260506004531 | 82 | 167 | 1.7 | 4.3 | 0.00 | 0.00 | 0.00 | 72 | 1006.3 |
| 20260506004257 | 82 | 166 | 1.7 | 5.2 | 0.00 | 0.00 | 0.00 | 72 | 1006.2 |
| 20260506003750 | 82 | 150 | 1.7 | 5.2 | 0.00 | 0.00 | 0.00 | 72 | 1006.1 |
| 20260506003013 | 83 | 146 | 1.7 | 4.3 | 0.00 | 0.00 | 0.00 | 72 | 1006.1 |
| 20260506002507 | 83 | 144 | 1.7 | 4.3 | 0.00 | 0.00 | 0.00 | 71 | 1006.1 |
| 20260506002001 | 83 | 153 | 1.7 | 4.3 | 0.00 | 0.00 | 0.00 | 71 | 1006.1 |
| 20260506001455 | 83 | 168 | 1.7 | 7.0 | 0.00 | 0.00 | 0.00 | 71 | 1006.1 |
| 20260506001221 | 83 | 163 | 1.7 | 7.0 | 0.00 | 0.00 | 0.00 | 71 | 1006.0 |
| 20260506000715 | 83 | 171 | 1.7 | 5.2 | 0.00 | 0.00 | 0.00 | 71 | 1005.9 |
| 20260506000438 | 83 | 150 | 1.7 | 5.2 | 0.00 | 0.00 | 0.00 | 71 | 1006.0 |
| 20260505235432 | 83 | 179 | 1.7 | 5.2 | 0.00 | 0.00 | 0.00 | 70 | 1005.9 |
| 20260505234925 | 83 | 150 | 2.6 | 7.8 | 0.00 | 0.00 | 0.00 | 70 | 1005.8 |
| 20260505234419 | 83 | 170 | 1.7 | 7.8 | 0.00 | 0.00 | 0.00 | 70 | 1005.8 |
| 20260505233913 | 83 | 174 | 1.7 | 6.1 | 0.00 | 0.00 | 0.00 | 70 | 1005.8 |
| 20260505233408 | 83 | 191 | 1.7 | 6.1 | 0.00 | 0.00 | 0.00 | 70 | 1005.7 |
| 20260505232901 | 83 | 182 | 2.6 | 7.8 | 0.00 | 0.00 | 0.00 | 70 | 1005.8 |
| 20260505232400 | 83 | 160 | 2.6 | 7.8 | 0.00 | 0.00 | 0.00 | 69 | 1005.7 |
| 20260505231845 | 83 | 121 | 2.6 | 6.1 | 0.00 | 0.00 | 0.00 | 69 | 1005.8 |
| 20260505231339 | 84 | 186 | 2.6 | 10.4 | 0.00 | 0.00 | 0.00 | 69 | 1005.8 |
| 20260505230834 | 84 | 169 | 2.6 | 10.4 | 0.00 | 0.00 | 0.00 | 69 | 1005.8 |
| 20260505230327 | 84 | 152 | 2.6 | 7.8 | 0.00 | 0.00 | 0.00 | 68 | 1005.6 |
| 20260505225821 | 84 | 130 | 3.5 | 7.8 | 0.00 | 0.00 | 0.00 | 69 | 1005.6 |
| 20260505225315 | 84 | 163 | 2.6 | 7.8 | 0.00 | 0.00 | 0.00 | 68 | 1005.5 |
| 20260505225042 | 84 | 155 | 2.6 | 7.8 | 0.00 | 0.00 | 0.00 | 68 | 1005.6 |